English version Home page |
Updated on January 30, 2011 |
|
軌道要素Epoch 2000 Dec. 2.0 TT = JDT 2451880.5 T 2000 Nov. 24.46502 TT MPC q 3.0374054 (2000.0) P Q z -0.0006908 Peri. 104.66803 -0.15569231 -0.95827327 +/-0.000000 Node 14.87984 -0.72634874 -0.05341895 e 1.0020983 Incl. 111.00187 +0.66946054 -0.28081800 From 942 observations 1999 July 22-2002 May 16, mean residual 0".6.
|
星図
|
光度変化m1 = 6.0 + 5 logΔ + 10.0 log r
|
軌道要素はM.P.E.C. 2011-A08に掲載されたものです。
|